Location: Berkeley
(37.8716°N, 122.2727°W)
Time: 04:09:17
(UTC-08:00)

Tiangong 1 - Visible Passes

Search period start: 15 December 2017 00:00
Search period end: 25 December 2017 00:00
Orbit: 275 x 302 km, 42.8° (Epoch: 14 December)

Date Brightness Start Highest point End Pass type
(mag) Time Alt. Az. Time Alt. Az. Time Alt. Az.
19 Dec 3.3 05:39:28 13° S 05:40:39 17° SE 05:42:23 10° E visible
20 Dec 1.9 05:43:52 32° SSE 05:44:09 34° SSE 05:46:29 10° E visible
21 Dec 0.8 05:47:50 65° ESE 05:47:50 65° ESE 05:50:08 10° ENE visible
22 Dec 1.1 05:51:30 46° NNE 05:51:30 46° NNE 05:53:31 10° ENE visible
23 Dec 1.7 05:54:53 31° NNE 05:54:53 31° NNE 05:56:44 10° ENE visible
24 Dec 2.0 05:58:03 26° N 05:58:03 26° N 05:59:53 10° NE visible
